Qianfan Jigui 03-16

operational
NORAD ID: 62253 Int'l Des: 2024-232 Owner: YUANX Country: CN Constellation: qianfan
LEOCIRCULARPOLAR

About Qianfan Jigui 03-16

Description loading...

Live Position

Loading 3D Globe...

Upcoming Passes

Altitude History

Altitude vs Time

uPlot chart will show altitude changes over time

Two-Line Element Set

1 62253U 24232S 26062.08851409 .00000067 00000-0 85167-4 0 9996
2 62253 89.0048 32.9956 0014327 327.5679 32.4590 13.51000431 78791
Epoch: Mar 3, 2026 • Age: 16 hours

Current Status

Altitude 1089.0 km
Velocity 7.31 km/s
Sub-Earth Point -49.26°S, 177.18°E
Launch Date Dec 5, 2024
Age 1.2 years
Type internet

Technical Details

Classification Payload
Mass 267.00 kg
Dry Mass 267.00 kg
Total Mass 267.00 kg
Length 0.30 m
Diameter 3.00 m
Span 10.00 m
Shape Box+pan
Manufacturer SECM
Bus Type Qianfan
Phase Status In Orbit
Owner/State YUANX/CN

Large Constellations

Loading constellations...